VXP931 KILG-KMYR

Flight info

Callsign VXP931
Flight time 1h 15m
Altitude 32000
Route OOD TEBEE HAYDO TRPOD Q409 CRPLR PAACK WYLMS V70 CRE
Aircraft B737/M-SDE2E3FGHIRWXY/LB1

Departure

Time 2026-04-29 14:27
Airport Wilmington Airport (KILG)

Arrival

Time 2026-04-29 15:42
Airport Myrtle Beach International Airport (KMYR)
Time Latitude Longitude Altitude Speed Heading
2026-04-29 13:50 39.67537 -75.59947 78 ft 0 kts 130°
2026-04-29 14:13 39.67538 -75.59948 78 ft 1 kts 130°
2026-04-29 14:13 39.67547 -75.59963 78 ft 2 kts 129°
2026-04-29 14:13 39.67553 -75.59972 78 ft 2 kts 130°
2026-04-29 14:14 39.67559 -75.59989 78 ft 2 kts 94°
2026-04-29 14:14 39.67558 -75.60009 78 ft 2 kts 65°
2026-04-29 14:14 39.67551 -75.60021 78 ft 0 kts 43°
2026-04-29 14:14 39.67545 -75.60027 78 ft 0 kts 39°
2026-04-29 14:18 39.67546 -75.60027 78 ft 0 kts 39°
2026-04-29 14:18 39.67554 -75.60018 78 ft 2 kts 39°
2026-04-29 14:18 39.67571 -75.60000 78 ft 5 kts 39°
2026-04-29 14:19 39.67608 -75.59959 78 ft 0 kts 40°
2026-04-29 14:19 39.67609 -75.59958 78 ft 0 kts 40°
2026-04-29 14:20 39.67615 -75.59952 78 ft 3 kts 40°
2026-04-29 14:20 39.67640 -75.59944 78 ft 5 kts 337°
2026-04-29 14:21 39.67683 -75.60000 77 ft 9 kts 309°
2026-04-29 14:21 39.67726 -75.60067 77 ft 9 kts 310°
2026-04-29 14:21 39.67766 -75.60133 77 ft 9 kts 324°
2026-04-29 14:21 39.67828 -75.60137 76 ft 9 kts
2026-04-29 14:22 39.67893 -75.60126 76 ft 10 kts
2026-04-29 14:22 39.67979 -75.60118 75 ft 12 kts
2026-04-29 14:22 39.68070 -75.60109 74 ft 13 kts
2026-04-29 14:22 39.68162 -75.60099 73 ft 13 kts
2026-04-29 14:23 39.68259 -75.60087 72 ft 13 kts
2026-04-29 14:23 39.68357 -75.60075 70 ft 14 kts
2026-04-29 14:23 39.68463 -75.60063 68 ft 15 kts
2026-04-29 14:23 39.68572 -75.60051 67 ft 16 kts
2026-04-29 14:24 39.68688 -75.60038 65 ft 17 kts
2026-04-29 14:24 39.68800 -75.60026 62 ft 9 kts 352°
2026-04-29 14:24 39.68821 -75.60052 62 ft 0 kts 284°
2026-04-29 14:24 39.68822 -75.60055 62 ft 1 kts 284°
2026-04-29 14:25 39.68825 -75.60076 62 ft 3 kts 281°
2026-04-29 14:25 39.68829 -75.60111 61 ft 4 kts 276°
2026-04-29 14:25 39.68829 -75.60152 61 ft 4 kts 245°
2026-04-29 14:25 39.68802 -75.60171 62 ft 3 kts 190°
2026-04-29 14:26 39.68777 -75.60171 62 ft 4 kts 181°
2026-04-29 14:26 39.68750 -75.60174 63 ft 3 kts 185°
2026-04-29 14:26 39.68623 -75.60188 65 ft 51 kts 184°
2026-04-29 14:26 39.68018 -75.60257 74 ft 120 kts 185°
2026-04-29 14:27 39.66993 -75.60383 191 ft 164 kts 187°
2026-04-29 14:27 39.65895 -75.60586 1099 ft 154 kts 186°
2026-04-29 14:27 39.64868 -75.60793 1802 ft 155 kts 187°
2026-04-29 14:28 39.62598 -75.61337 2707 ft 180 kts 189°
2026-04-29 14:28 39.61304 -75.61626 3182 ft 193 kts 180°
2026-04-29 14:28 39.60023 -75.61111 3693 ft 204 kts 142°
2026-04-29 14:28 39.59153 -75.59525 3934 ft 233 kts 108°
2026-04-29 14:29 39.59215 -75.57309 4327 ft 255 kts 67°
2026-04-29 14:29 39.60045 -75.55286 4927 ft 265 kts 62°
2026-04-29 14:29 39.60819 -75.53060 5476 ft 277 kts 71°
2026-04-29 14:29 39.61298 -75.50589 6272 ft 280 kts 78°
2026-04-29 14:30 39.61606 -75.48086 6963 ft 286 kts 81°
2026-04-29 14:30 39.61694 -75.45503 7761 ft 289 kts 98°
2026-04-29 14:30 39.60897 -75.43085 8542 ft 292 kts 128°
2026-04-29 14:30 39.59384 -75.41297 9159 ft 300 kts 144°
2026-04-29 14:31 39.57675 -75.39746 9990 ft 302 kts 147°
2026-04-29 14:31 39.55913 -75.38126 10577 ft 314 kts 145°
2026-04-29 14:31 39.54135 -75.36420 11279 ft 322 kts 144°
2026-04-29 14:31 39.52324 -75.34685 11780 ft 326 kts 148°
2026-04-29 14:32 39.50291 -75.33297 12230 ft 329 kts 166°
2026-04-29 14:32 39.48068 -75.33018 13273 ft 318 kts 188°
2026-04-29 14:32 39.45877 -75.33411 14076 ft 320 kts 192°
2026-04-29 14:32 39.43677 -75.33875 14897 ft 323 kts 193°
2026-04-29 14:33 39.41449 -75.34312 15732 ft 326 kts 192°
2026-04-29 14:33 39.39173 -75.34739 16568 ft 328 kts 192°
2026-04-29 14:33 39.36923 -75.35151 17399 ft 329 kts 192°
2026-04-29 14:33 39.34652 -75.35561 18198 ft 331 kts 192°
2026-04-29 14:34 39.32351 -75.35969 18923 ft 334 kts 193°
2026-04-29 14:34 39.30038 -75.36383 19608 ft 337 kts 193°
2026-04-29 14:34 39.27702 -75.36800 20236 ft 342 kts 193°
2026-04-29 14:34 39.25344 -75.37221 20916 ft 344 kts 193°
2026-04-29 14:35 39.22939 -75.37652 21540 ft 348 kts 193°
2026-04-29 14:35 39.20557 -75.38081 22217 ft 348 kts 194°
2026-04-29 14:35 39.18147 -75.38518 22813 ft 351 kts 194°
2026-04-29 14:35 39.15682 -75.38965 23316 ft 357 kts 194°
2026-04-29 14:36 39.13232 -75.39404 23916 ft 359 kts 194°
2026-04-29 14:36 39.10725 -75.39851 24533 ft 361 kts 194°
2026-04-29 14:36 39.08234 -75.40299 25029 ft 366 kts 195°
2026-04-29 14:36 39.05699 -75.40758 25537 ft 370 kts 195°
2026-04-29 14:37 39.03117 -75.41218 26097 ft 372 kts 195°
2026-04-29 14:37 39.00553 -75.41673 26598 ft 376 kts 195°
2026-04-29 14:37 38.97925 -75.42139 27073 ft 380 kts 195°
2026-04-29 14:37 38.95288 -75.42601 27552 ft 383 kts 196°
2026-04-29 14:38 38.92641 -75.43069 28073 ft 385 kts 196°
2026-04-29 14:38 38.89983 -75.43539 28537 ft 387 kts 196°
2026-04-29 14:38 38.87272 -75.44017 28943 ft 391 kts 197°
2026-04-29 14:38 38.84547 -75.44493 29394 ft 394 kts 197°
2026-04-29 14:39 38.81809 -75.44976 29762 ft 398 kts 197°
2026-04-29 14:39 38.79066 -75.45460 30235 ft 398 kts 197°
2026-04-29 14:39 38.76320 -75.45943 30640 ft 400 kts 198°
2026-04-29 14:39 38.73509 -75.46442 30954 ft 405 kts 198°
2026-04-29 14:40 38.70710 -75.46934 31431 ft 404 kts 198°
2026-04-29 14:40 38.67884 -75.47430 31765 ft 407 kts 198°
2026-04-29 14:40 38.65060 -75.47930 32018 ft 411 kts 198°
2026-04-29 14:41 38.59332 -75.48939 32042 ft 409 kts 198°
2026-04-29 14:41 38.53620 -75.49937 32040 ft 407 kts 198°
2026-04-29 14:42 38.47914 -75.50937 32043 ft 408 kts 198°
2026-04-29 14:42 38.42270 -75.51925 32049 ft 407 kts 198°
2026-04-29 14:43 38.36636 -75.53010 32040 ft 403 kts 202°
2026-04-29 14:43 38.31540 -75.55462 32046 ft 382 kts 219°
2026-04-29 14:44 38.27097 -75.59116 32048 ft 377 kts 224°
2026-04-29 14:44 38.22766 -75.62977 32038 ft 375 kts 224°
2026-04-29 14:45 38.18441 -75.66805 32046 ft 379 kts 223°
2026-04-29 14:45 38.14276 -75.70445 32044 ft 375 kts 223°
2026-04-29 14:46 38.09941 -75.74218 32039 ft 377 kts 223°
2026-04-29 14:46 38.05568 -75.78007 32043 ft 378 kts 223°
2026-04-29 14:47 38.01189 -75.81794 32032 ft 378 kts 223°
2026-04-29 14:47 37.96842 -75.85545 32042 ft 378 kts 223°
2026-04-29 14:48 37.92491 -75.89297 32046 ft 376 kts 223°
2026-04-29 14:48 37.88136 -75.93049 32055 ft 378 kts 222°
2026-04-29 14:49 37.83748 -75.96825 32050 ft 377 kts 223°
2026-04-29 14:49 37.79368 -76.00588 32052 ft 378 kts 223°
2026-04-29 14:50 37.75015 -76.04317 32041 ft 378 kts 222°
2026-04-29 14:50 37.70650 -76.08052 32049 ft 375 kts 222°
2026-04-29 14:51 37.66302 -76.11768 32037 ft 378 kts 223°
2026-04-29 14:51 37.61927 -76.15506 32028 ft 377 kts 223°
2026-04-29 14:52 37.57432 -76.18956 32037 ft 381 kts 217°
2026-04-29 14:52 37.52693 -76.22047 32043 ft 385 kts 216°
2026-04-29 14:53 37.47918 -76.25133 32036 ft 383 kts 216°
2026-04-29 14:53 37.43149 -76.28256 32035 ft 384 kts 216°
2026-04-29 14:54 37.38423 -76.31377 32035 ft 382 kts 217°
2026-04-29 14:54 37.33714 -76.34492 32042 ft 382 kts 216°
2026-04-29 14:55 37.29001 -76.37611 32040 ft 380 kts 216°
2026-04-29 14:55 37.24274 -76.40735 32042 ft 385 kts 217°
2026-04-29 14:56 37.19541 -76.43851 32036 ft 379 kts 216°
2026-04-29 14:56 37.14849 -76.46943 32037 ft 383 kts 216°
2026-04-29 14:57 37.10130 -76.50046 32037 ft 382 kts 216°
2026-04-29 14:57 37.05417 -76.53140 32039 ft 380 kts 216°
2026-04-29 14:58 37.00693 -76.56237 32032 ft 380 kts 216°
2026-04-29 14:58 36.95990 -76.59322 32037 ft 382 kts 216°
2026-04-29 14:59 36.91235 -76.62432 32036 ft 382 kts 216°
2026-04-29 14:59 36.86514 -76.65516 32033 ft 383 kts 216°
2026-04-29 15:00 36.81756 -76.68619 32034 ft 381 kts 215°
2026-04-29 15:00 36.77142 -76.71627 32035 ft 383 kts 215°
2026-04-29 15:01 36.72497 -76.74651 32034 ft 384 kts 215°
2026-04-29 15:01 36.67723 -76.77749 32027 ft 385 kts 216°
2026-04-29 15:02 36.62949 -76.80844 32029 ft 386 kts 216°
2026-04-29 15:02 36.58183 -76.83931 32026 ft 384 kts 215°
2026-04-29 15:03 36.53419 -76.87006 32017 ft 383 kts 216°
2026-04-29 15:03 36.48676 -76.90072 32015 ft 383 kts 215°
2026-04-29 15:04 36.43921 -76.93135 32016 ft 384 kts 215°
2026-04-29 15:04 36.39169 -76.96203 32015 ft 385 kts 216°
2026-04-29 15:05 36.34403 -76.99267 32014 ft 386 kts 215°
2026-04-29 15:05 36.29620 -77.02336 32013 ft 385 kts 215°
2026-04-29 15:06 36.24838 -77.05402 32016 ft 387 kts 215°
2026-04-29 15:06 36.20024 -77.08485 32013 ft 386 kts 215°
2026-04-29 15:07 36.15247 -77.11540 32012 ft 387 kts 215°
2026-04-29 15:07 36.10435 -77.14610 32003 ft 387 kts 215°
2026-04-29 15:08 36.05613 -77.17687 31995 ft 390 kts 215°
2026-04-29 15:08 36.00765 -77.20772 31996 ft 387 kts 215°
2026-04-29 15:09 35.95951 -77.23834 32002 ft 389 kts 215°
2026-04-29 15:09 35.91103 -77.26882 32005 ft 390 kts 213°
2026-04-29 15:10 35.86154 -77.29726 32008 ft 392 kts 212°
2026-04-29 15:10 35.81180 -77.32508 32008 ft 394 kts 212°
2026-04-29 15:11 35.76183 -77.35313 32006 ft 391 kts 212°
2026-04-29 15:11 35.71167 -77.38145 32006 ft 393 kts 212°
2026-04-29 15:12 35.66195 -77.40954 32007 ft 394 kts 212°
2026-04-29 15:12 35.61204 -77.43776 32008 ft 392 kts 212°
2026-04-29 15:13 35.56231 -77.46586 32010 ft 393 kts 212°
2026-04-29 15:13 35.51223 -77.49410 32013 ft 393 kts 212°
2026-04-29 15:14 35.46241 -77.52214 32015 ft 395 kts 212°
2026-04-29 15:14 35.41216 -77.55038 32017 ft 395 kts 211°
2026-04-29 15:15 35.36223 -77.57841 32019 ft 396 kts 212°
2026-04-29 15:15 35.31187 -77.60664 32022 ft 393 kts 212°
2026-04-29 15:16 35.26165 -77.63476 32024 ft 397 kts 212°
2026-04-29 15:16 35.21123 -77.66293 32021 ft 394 kts 211°
2026-04-29 15:17 35.16228 -77.69031 32025 ft 397 kts 211°
2026-04-29 15:17 35.11184 -77.71851 32027 ft 398 kts 211°
2026-04-29 15:18 35.06115 -77.74673 32026 ft 401 kts 211°
2026-04-29 15:18 35.01030 -77.77505 32022 ft 399 kts 211°
2026-04-29 15:19 34.95947 -77.80326 32026 ft 401 kts 211°
2026-04-29 15:19 34.90828 -77.83158 31679 ft 403 kts 211°
2026-04-29 15:19 34.88273 -77.84568 31210 ft 398 kts 211°
2026-04-29 15:20 34.85754 -77.85955 30831 ft 390 kts 211°
2026-04-29 15:20 34.83290 -77.87315 30166 ft 391 kts 211°
2026-04-29 15:20 34.80792 -77.88712 29664 ft 394 kts 210°
2026-04-29 15:20 34.78296 -77.90091 29462 ft 386 kts 210°
2026-04-29 15:21 34.75851 -77.91434 28862 ft 385 kts 210°
2026-04-29 15:21 34.73412 -77.92773 28239 ft 383 kts 210°
2026-04-29 15:21 34.71006 -77.94101 27761 ft 379 kts 210°
2026-04-29 15:21 34.68584 -77.95438 27202 ft 376 kts 209°
2026-04-29 15:22 34.66218 -77.96741 26638 ft 374 kts 210°
2026-04-29 15:22 34.63855 -77.98038 26118 ft 371 kts 210°
2026-04-29 15:22 34.61474 -77.99341 25544 ft 370 kts 209°
2026-04-29 15:22 34.59141 -78.00625 24965 ft 368 kts 209°
2026-04-29 15:23 34.56813 -78.01914 24388 ft 367 kts 209°
2026-04-29 15:23 34.54493 -78.03196 23887 ft 364 kts 209°
2026-04-29 15:23 34.52167 -78.04477 23374 ft 361 kts 209°
2026-04-29 15:23 34.49881 -78.05734 22779 ft 361 kts 209°
2026-04-29 15:24 34.47575 -78.07001 22292 ft 358 kts 208°
2026-04-29 15:24 34.45325 -78.08234 21860 ft 354 kts 209°
2026-04-29 15:24 34.43066 -78.09466 21397 ft 350 kts 208°
2026-04-29 15:24 34.40842 -78.10682 20894 ft 349 kts 208°
2026-04-29 15:25 34.38646 -78.11884 20429 ft 346 kts 209°
2026-04-29 15:25 34.36446 -78.13089 19942 ft 343 kts 208°
2026-04-29 15:25 34.34277 -78.14274 19500 ft 340 kts 208°
2026-04-29 15:25 34.32127 -78.15450 19011 ft 338 kts 209°
2026-04-29 15:26 34.29988 -78.16620 18561 ft 334 kts 208°
2026-04-29 15:26 34.27866 -78.17779 18098 ft 332 kts 209°
2026-04-29 15:26 34.25766 -78.18926 17669 ft 328 kts 209°
2026-04-29 15:26 34.23682 -78.20064 17180 ft 327 kts 208°
2026-04-29 15:27 34.21582 -78.21210 16706 ft 326 kts 208°
2026-04-29 15:27 34.19525 -78.22330 16298 ft 322 kts 208°
2026-04-29 15:27 34.17476 -78.23444 15833 ft 320 kts 208°
2026-04-29 15:27 34.15459 -78.24541 15405 ft 318 kts 208°
2026-04-29 15:28 34.13434 -78.25641 14945 ft 316 kts 208°
2026-04-29 15:28 34.12093 -78.26390 14597 ft 314 kts 211°
2026-04-29 15:28 34.09682 -78.28264 13799 ft 304 kts 225°
2026-04-29 15:28 34.08276 -78.30106 13329 ft 295 kts 234°
2026-04-29 15:29 34.07882 -78.30707 13199 ft 294 kts 235°
2026-04-29 15:29 34.05428 -78.34654 12380 ft 295 kts 236°
2026-04-29 15:30 34.02996 -78.38591 11574 ft 289 kts 236°
2026-04-29 15:30 34.01780 -78.40518 11177 ft 286 kts 236°
2026-04-29 15:30 34.00584 -78.42421 10772 ft 282 kts 236°
2026-04-29 15:30 33.99396 -78.44307 10379 ft 280 kts 237°
2026-04-29 15:31 33.98311 -78.46210 10138 ft 271 kts 243°
2026-04-29 15:31 33.97635 -78.48254 10011 ft 256 kts 257°
2026-04-29 15:31 33.97274 -78.50314 9750 ft 250 kts 260°
2026-04-29 15:31 33.96904 -78.52367 9411 ft 247 kts 258°
2026-04-29 15:32 33.96481 -78.54365 9114 ft 243 kts 256°
2026-04-29 15:32 33.96055 -78.56345 8799 ft 241 kts 256°
2026-04-29 15:32 33.95618 -78.58276 8508 ft 238 kts 257°
2026-04-29 15:32 33.95206 -78.60214 8211 ft 235 kts 258°
2026-04-29 15:33 33.94797 -78.62106 7913 ft 231 kts 257°
2026-04-29 15:33 33.94391 -78.63974 7648 ft 228 kts 257°
2026-04-29 15:33 33.93986 -78.65818 7360 ft 226 kts 256°
2026-04-29 15:33 33.93619 -78.67498 7093 ft 224 kts 256°
2026-04-29 15:34 33.93247 -78.69211 6829 ft 223 kts 256°
2026-04-29 15:34 33.92853 -78.71025 6557 ft 221 kts 256°
2026-04-29 15:34 33.92460 -78.72823 6286 ft 221 kts 256°
2026-04-29 15:34 33.92065 -78.74633 6009 ft 221 kts 256°
2026-04-29 15:35 33.91673 -78.76428 5733 ft 221 kts 256°
2026-04-29 15:35 33.91286 -78.78202 5456 ft 220 kts 256°
2026-04-29 15:35 33.90895 -78.79984 5178 ft 218 kts 256°
2026-04-29 15:35 33.90506 -78.81746 4897 ft 216 kts 256°
2026-04-29 15:36 33.90124 -78.83501 4631 ft 211 kts 256°
2026-04-29 15:36 33.89753 -78.85201 4372 ft 206 kts 256°
2026-04-29 15:36 33.89393 -78.86848 4216 ft 202 kts 256°
2026-04-29 15:36 33.89030 -78.88506 4153 ft 206 kts 256°
2026-04-29 15:37 33.88662 -78.90179 4085 ft 204 kts 255°
2026-04-29 15:37 33.88295 -78.91831 4018 ft 203 kts 255°
2026-04-29 15:37 33.87930 -78.93484 3949 ft 201 kts 255°
2026-04-29 15:37 33.87512 -78.95076 3754 ft 200 kts 246°
2026-04-29 15:38 33.86625 -78.96354 3520 ft 201 kts 215°
2026-04-29 15:38 33.85304 -78.96911 3239 ft 208 kts 193°
2026-04-29 15:38 33.83823 -78.96905 2912 ft 214 kts 175°
2026-04-29 15:38 33.82353 -78.96471 2622 ft 215 kts 169°
2026-04-29 15:39 33.80912 -78.96050 2324 ft 209 kts 172°
2026-04-29 15:39 33.79543 -78.95702 2067 ft 191 kts 173°
2026-04-29 15:39 33.78276 -78.95392 1817 ft 176 kts 174°
2026-04-29 15:39 33.77128 -78.95104 1585 ft 160 kts 173°
2026-04-29 15:40 33.76075 -78.94847 1365 ft 147 kts 174°
2026-04-29 15:40 33.75091 -78.94603 1185 ft 139 kts 174°
2026-04-29 15:40 33.74136 -78.94363 1000 ft 140 kts 173°
2026-04-29 15:40 33.73185 -78.94136 802 ft 139 kts 174°
2026-04-29 15:41 33.72239 -78.93905 672 ft 136 kts 172°
2026-04-29 15:41 33.71304 -78.93662 499 ft 138 kts 172°
2026-04-29 15:41 33.70344 -78.93424 299 ft 142 kts 172°
2026-04-29 15:41 33.69358 -78.93175 82 ft 142 kts 171°
2026-04-29 15:42 33.68444 -78.92950 25 ft 115 kts 170°
2026-04-29 15:42 33.67884 -78.92808 25 ft 51 kts 168°
2026-04-29 15:42 33.67616 -78.92710 25 ft 31 kts 147°
2026-04-29 15:42 33.67505 -78.92602 25 ft 11 kts 139°
2026-04-29 15:43 33.67494 -78.92525 25 ft 10 kts 36°
2026-04-29 15:43 33.67566 -78.92528 25 ft 10 kts 349°
2026-04-29 15:43 33.67635 -78.92547 25 ft 9 kts 346°
2026-04-29 15:43 33.67701 -78.92564 25 ft 9 kts 348°
2026-04-29 15:44 33.67765 -78.92579 25 ft 9 kts 349°
2026-04-29 15:44 33.67827 -78.92592 25 ft 8 kts 349°
2026-04-29 15:44 33.67846 -78.92596 25 ft 0 kts 349°
2026-04-29 15:44 33.67852 -78.92598 25 ft 0 kts 349°
2026-04-29 15:48 33.67857 -78.92599 25 ft 3 kts 349°
2026-04-29 15:48 33.67876 -78.92583 25 ft 3 kts 70°
2026-04-29 15:48 33.67882 -78.92546 25 ft 6 kts 79°
2026-04-29 15:48 33.67891 -78.92487 25 ft 7 kts 79°
2026-04-29 15:49 33.67908 -78.92441 25 ft 5 kts 30°
2026-04-29 15:49 33.67946 -78.92434 25 ft 5 kts
2026-04-29 15:49 33.67970 -78.92430 25 ft 1 kts
2026-04-29 15:49 33.67972 -78.92429 25 ft 0 kts